Location: Brunsen
(51.8651°N, 9.8610°E)
Time: 15:35:33
(UTC+00:00)

Cosmos 1703 Rocket - Pass Details

Date: 23 May 2024
Orbit: 602 x 629 km, 82.5° (Epoch: 24 June)

Event Time Altitude Azimuth Distance (km) Brightness Sun altitude
Exits shadow 00:59:04 21° 184° (S) 1,392 4.8 -14.2°
Maximum altitude 01:01:58 82° 99° (E) 639 3.6 -14.0°
Drops below altitude 10° 01:06:26 10° 12° (NNE) 2,018 7.5 -13.7°
Sets 01:08:42 0° 12° (NNE) 2,933 8.7 -13.5°
